Home   Weather   Seattle   Past weeks

Flag for USA Past Weather in Seattle, Washington, USA — Yesterday and Last 2 Weeks

Now
33 °F

Clear.


Feels Like: 28 °F
Forecast: 28 / 35 °F
Wind: 6 mph from North

Location: Seattle Boeing Field

Current Time: Dec 8, 2016 at 6:09:30 am

Latest Report: Dec 8, 2016 at 4:53 am


Visibility: 10 mi

Pressure: 30.17 "Hg

Humidity: 49%

Dew Point: 16 °F

Location of SeattleLocation

Past Weather in Seattle — Graph

°F

Seattle Temperature Yesterday

Maximum temperature yesterday: 39 °F (at 1:53 pm)
Minimum temperature yesterday: 27 °F (at 3:53 am)
Average temperature yesterday: 33 °F

High & Low Weather Summary for the Past Weeks

 TemperatureHumidityPressure
High52 °F (Nov 25, 1:53 pm)100% (Nov 25, 8:53 am)30.44 "Hg (Nov 25, 8:53 am)
Low27 °F (Dec 7, 3:53 am)48% (Dec 7, 2:53 pm)29.41 "Hg (Nov 26, 2:53 pm)
Average44 °F86%30.02 "Hg
* Reported Nov 23 4:53 am — Dec 8 4:53 am, Seattle, Weather by CustomWeather, © 2016

Note: Actual official high and low records may vary slightly from our data, if they occured in-between our weather recording intervals... More about our weather records

Advertising

Seattle Weather History for the Previous 24 Hours

Scroll right to see more
 ConditionsComfort  
Time TempWeatherWind HumidityBarometerVisibility
4:53 am
Thu, Dec 8
33 °FClear.6 mph49%30.17 "Hg10 mi
3:53 am33 °FClear.5 mph49%30.21 "Hg10 mi
2:53 am33 °FClear.3 mph49%30.23 "Hg10 mi
1:53 am33 °FClear.6 mph52%30.24 "Hg10 mi
12:53 am33 °FClear.3 mph52%30.27 "Hg10 mi
11:53 pm
Wed, Dec 7
33 °FClear.5 mph52%30.28 "Hg10 mi
10:53 pm33 °FClear.5 mph54%30.29 "Hg10 mi
9:53 pm33 °FClear.6 mph56%30.32 "Hg10 mi
8:53 pm34 °FClear.5 mph52%30.32 "Hg10 mi
7:53 pm34 °FClear.No wind52%30.33 "Hg10 mi
6:53 pm33 °FPassing clouds.3 mph63%30.35 "Hg10 mi
5:53 pm34 °FClear.3 mph64%30.36 "Hg10 mi
4:53 pm36 °FPassing clouds.3 mph59%30.38 "Hg10 mi
3:53 pm37 °FScattered clouds.5 mph57%30.39 "Hg10 mi
2:53 pm39 °FPassing clouds.9 mph48%30.39 "Hg10 mi
1:53 pm39 °FSunny.6 mph53%30.40 "Hg10 mi
12:53 pm38 °FSunny.7 mph58%30.42 "Hg10 mi
11:53 am36 °FSunny.6 mph62%30.43 "Hg10 mi
10:53 am35 °FPassing clouds.6 mph67%30.44 "Hg10 mi
9:53 am33 °FPassing clouds.6 mph72%30.44 "Hg10 mi
8:53 am31 °FPassing clouds.6 mph82%30.44 "Hg10 mi
7:53 am30 °FSunny.3 mph82%30.44 "Hg10 mi
6:53 am30 °FClear.6 mph69%30.44 "Hg10 mi
Weather by CustomWeather, © 2016

See weather overviewHow to use our weather pages